Location: Costa Mesa
(33.6411°N, 117.9187°W)
Time: 02:21:53
(UTC+00:00)

Cosmos 1867 - Pass Details

Date: 10 September 2024
Orbit: 772 x 802 km, 65.0° (Epoch: 10 October)

Event Time Altitude Azimuth Distance (km) Brightness Sun altitude
Exits shadow 12:03:56 29° 219° (SW) 1,426 4.4 -18.7°
Maximum altitude 12:06:47 74° 299° (WNW) 827 3.5 -18.2°
Drops below altitude 10° 12:12:15 10° 25° (NNE) 2,374 6.6 -17.1°
Sets 12:14:42 0° 27° (NNE) 3,310 7.5 -16.6°
